WetterOnline ( https://www.wetteronline.de )

Wetter aktuell Offenburg

Aktuelles Wetter: Lahr (156m)

6-stündlich | Neueste Meldungen
Ortszeit Temperatur Wetter
Mo, 19.04. 2:00 5.9° C bedeckt
So, 18.04. 20:00 10.1° C bedeckt
So, 18.04. 14:00 9.5° C bedeckt
So, 18.04. 8:00 5.0° C Sprühregen
So, 18.04. 2:00 6.9° C bedeckt
Sa, 17.04. 20:00 9.9° C bewölkt
Sa, 17.04. 14:00 11.1° C bedeckt
Sa, 17.04. 8:00 0.6° C bedeckt
Ortszeit Temperatur Wetter
Mo, 19.04. 2:30 6.0° C bedeckt
Mo, 19.04. 2:20 6.0° C bedeckt
Mo, 19.04. 2:10 6.1° C bedeckt
Mo, 19.04. 2:00 5.9° C bedeckt
Mo, 19.04. 1:50 5.9° C bedeckt
Mo, 19.04. 1:40 6.0° C bedeckt
Mo, 19.04. 1:30 5.9° C bewölkt
Mo, 19.04. 1:00 6.2° C bewölkt
Mo, 19.04. 0:30 6.4° C bedeckt
Mo, 19.04. 0:00 5.8° C bewölkt
So, 18.04. 23:30 6.9° C bewölkt
So, 18.04. 23:00 7.8° C bedeckt
Ortszeit Relative Feuchte Sichtweite
Mo, 19.04. 2:00 85% 35 km
So, 18.04. 20:00 64% 29 km
So, 18.04. 14:00 60% 35 km
So, 18.04. 8:00 85% 27 km
So, 18.04. 2:00 76% 45 km
Sa, 17.04. 20:00 55% 60 km
Sa, 17.04. 14:00 51% 35 km
Sa, 17.04. 8:00 91% 22 km
Ortszeit Relative Feuchte Sichtweite
Mo, 19.04. 2:30 86% 35 km
Mo, 19.04. 2:20 86% -
Mo, 19.04. 2:10 84% -
Mo, 19.04. 2:00 85% 35 km
Mo, 19.04. 1:50 85% -
Mo, 19.04. 1:40 85% -
Mo, 19.04. 1:30 86% 30 km
Mo, 19.04. 1:00 83% 40 km
Mo, 19.04. 0:30 83% 30 km
Mo, 19.04. 0:00 80% 30 km
So, 18.04. 23:30 79% 30 km
So, 18.04. 23:00 74% 40 km
Ortszeit Niederschlagsmenge Niederschlagsart
Mo, 19.04. 2:00 0.0 l/m2 in 6 Std. -
So, 18.04. 20:00 0.1 l/m2 in 12 Std. -
So, 18.04. 14:00 0.1 l/m2 in 6 Std. Regen
So, 18.04. 8:00 0.1 l/m2 in 12 Std. Regen
So, 18.04. 2:00 0.1 l/m2 in 6 Std. Regen
Sa, 17.04. 20:00 0.0 l/m2 in 12 Std. -
Sa, 17.04. 14:00 0.0 l/m2 in 6 Std. -
Sa, 17.04. 8:00 0.0 l/m2 in 12 Std. -
Ortszeit Niederschlagsmenge Niederschlagsart
Mo, 19.04. 2:30 0.0 l/m2 in 1 Std. -
Mo, 19.04. 2:20 keine Meldung -
Mo, 19.04. 2:10 keine Meldung -
Mo, 19.04. 2:00 0.0 l/m2 in 1 Std. -
Mo, 19.04. 1:50 keine Meldung -
Mo, 19.04. 1:40 keine Meldung -
Mo, 19.04. 1:30 0.0 l/m2 in 1 Std. -
Mo, 19.04. 1:00 0.0 l/m2 in 1 Std. -
Mo, 19.04. 0:30 0.0 l/m2 in 1 Std. -
Mo, 19.04. 0:00 0.0 l/m2 in 1 Std. -
So, 18.04. 23:30 0.0 l/m2 in 1 Std. -
So, 18.04. 23:00 0.0 l/m2 in 1 Std. -
Ortszeit Stärke Spitze Richtung
km/h Bft. km/h Grad Sektor
Mo, 19.04. 2:00 0 0 11 - -
So, 18.04. 20:00 4 1 18 330° NW
So, 18.04. 14:00 7 2 19 40° NO
So, 18.04. 8:00 7 2 14 10° N
So, 18.04. 2:00 6 1 19 50° NO
Sa, 17.04. 20:00 11 2 40 60° NO
Sa, 17.04. 14:00 14 3 22 50° NO
Sa, 17.04. 8:00 4 1 11 10° N
Ortszeit Stärke Spitze Richtung
km/h Bft. km/h Grad Sektor
Mo, 19.04. 2:30 2 1 4 210° SW
Mo, 19.04. 2:20 2 1 - 210° SW
Mo, 19.04. 2:10 4 1 - 330° NW
Mo, 19.04. 2:00 0 0 4 - -
Mo, 19.04. 1:50 2 1 - 170° S
Mo, 19.04. 1:40 4 1 - 350° N
Mo, 19.04. 1:30 0 0 4 - -
Mo, 19.04. 1:00 0 0 7 - -
Mo, 19.04. 0:30 4 1 7 260° W
Mo, 19.04. 0:00 6 1 7 360° N
So, 18.04. 23:30 4 1 7 150° SO
So, 18.04. 23:00 4 1 7 190° S
Ortszeit Untergrenze Bedeckung Gattung
total tief tief mittel hoch
Mo, 19.04. 2:00 1140 m 8/8 8/8 - - -
So, 18.04. 20:00 1350 m 8/8 8/8 - - -
So, 18.04. 14:00 990 m 8/8 8/8 - - -
So, 18.04. 8:00 1110 m 7/8 7/8 - - -
So, 18.04. 2:00 990 m 8/8 8/8 - - -
Sa, 17.04. 20:00 1020 m 8/8 7/8 - - -
Sa, 17.04. 14:00 1470 m 8/8 8/8 - - -
Sa, 17.04. 8:00 2100 m 8/8 8/8 - - -
Ortszeit Bedeckungsgrad in Achtel und Wolkenuntergrenze
Mo, 19.04. 2:30 3(1200m) 8(2100m) 8(2700m)
Mo, 19.04. 2:20 3(1200m) 8(2100m) 8(2700m)
Mo, 19.04. 2:10 5(1200m) 7(2100m) 8(2700m)
Mo, 19.04. 2:00 2(1140m) 8(2700m) 8(2700m)
Mo, 19.04. 1:50 2(1140m) 8(2700m)
Mo, 19.04. 1:40 2(1170m) 3(2400m) 8(2700m)
Mo, 19.04. 1:30 4(1200m) 4(2100m) 8(3000m)
Mo, 19.04. 1:00 2(1230m) 7(2400m) 8(3000m)
Mo, 19.04. 0:30 7(1230m) 8(2700m)
Mo, 19.04. 0:00 6(1800m) 7(2700m) 7(6600m)
So, 18.04. 23:30 1(1410m) 7(2400m) 7(6300m)
So, 18.04. 23:00 1(1320m) 8(2700m)
Ortszeit Luftdruck NN (hPa) Tendenz (hPa in 3 Std.)
Mo, 19.04. 2:00 1021 - 0,4
So, 18.04. 20:00 1021 + 0,6
So, 18.04. 14:00 1021 - 0,1
So, 18.04. 8:00 1021 + 0,6
So, 18.04. 2:00 1021 0,0
Sa, 17.04. 20:00 1021 + 0,5
Sa, 17.04. 14:00 1021 - 1,8
Sa, 17.04. 8:00 1024 + 0,5
Ortszeit Luftdruck NN (hPa) Tendenz (hPa in 3 Std.)
Mo, 19.04. 2:30 1021 - 0,5
Mo, 19.04. 2:20 1021 keine Meldung
Mo, 19.04. 2:10 1021 keine Meldung
Mo, 19.04. 2:00 1021 - 0,4
Mo, 19.04. 1:50 1021 keine Meldung
Mo, 19.04. 1:40 1021 keine Meldung
Mo, 19.04. 1:30 1021 - 0,3
Mo, 19.04. 1:00 1021 0,0
Mo, 19.04. 0:30 1021 + 0,1
Mo, 19.04. 0:00 1022 + 0,2
So, 18.04. 23:30 1021 + 0,3
So, 18.04. 23:00 1021 + 0,3
Ortszeit Schneehöhe (cm)
Mo, 19.04. 2:00 0
So, 18.04. 20:00 0
So, 18.04. 14:00 0
So, 18.04. 8:00 0
So, 18.04. 2:00 0
Sa, 17.04. 20:00 0
Sa, 17.04. 14:00 0
Sa, 17.04. 8:00 0
Ortszeit Schneehöhe (cm)
Mo, 19.04. 2:30 0
Mo, 19.04. 2:20 0
Mo, 19.04. 2:10 0
Mo, 19.04. 2:00 0
Mo, 19.04. 1:50 0
Mo, 19.04. 1:40 0
Mo, 19.04. 1:30 0
Mo, 19.04. 1:00 0
Mo, 19.04. 0:30 0
Mo, 19.04. 0:00 0
So, 18.04. 23:30 0
So, 18.04. 23:00 0
Link zu dieser Seite / Seite empfehlen

Das Wetter in ...